Location: Bothwell
(42.3833°S, 147.0000°E)
Time: 19:58:47
(UTC+10:00)

Envisat - Pass Details

Date: 23 February 2024
Orbit: 762 x 764 km, 98.3° (Epoch: 22 April)

Event Time Altitude Azimuth Distance (km) Brightness Sun altitude
Exits shadow 02:55:35 30° 107° (ESE) 1,361 4.5 -33.5°
Maximum altitude 02:55:52 30° 113° (ESE) 1,356 4.6 -33.5°
Drops below altitude 10° 03:00:18 10° 173° (S) 2,333 6.2 -33.1°
Sets 03:02:51 0° 183° (S) 3,267 7.0 -32.9°
